Satellite: HRBE Catalog number: 37855 Epoch time: 14184.09965951 Element set: 838 Inclination: 101.7171 deg RA of node: 222.5851 deg Eccentricity: 0.0216026 Arg of perigee: 009.1797 deg Mean anomaly: 054.2630 deg Mean motion: 14.90251277 rev/day Decay rate: 6.375e-05 rev/day^2 Epoch rev: 14505 Checksum: 304
Satellite: RS-39 Catalog number: 38051 Epoch time: 14185.15685006 Element set: 689 Inclination: 051.6248 deg RA of node: 137.2346 deg Eccentricity: 0.0001383 Arg of perigee: 255.0553 deg Mean anomaly: 229.5764 deg Mean motion: 15.62282539 rev/day Decay rate: 7.5876e-04 rev/day^2 Epoch rev: 13676 Checksum: 336
Satellite: E-STAR Catalog number: 38079 Epoch time: 14184.74841847 Element set: 899 Inclination: 069.4515 deg RA of node: 307.8958 deg Eccentricity: 0.0363042 Arg of perigee: 330.8532 deg Mean anomaly: 147.3894 deg Mean motion: 15.11041996 rev/day Decay rate: 6.8392e-04 rev/day^2 Epoch rev: 12596 Checksum: 358
Satellite: GOLIAT Catalog number: 38085 Epoch time: 14184.78066601 Element set: 173 Inclination: 069.4569 deg RA of node: 315.2892 deg Eccentricity: 0.0386738 Arg of perigee: 334.5708 deg Mean anomaly: 023.6846 deg Mean motion: 15.05004822 rev/day Decay rate: 6.3213e-04 rev/day^2 Epoch rev: 12577 Checksum: 321
Satellite: HORYU-2 Catalog number: 38340 Epoch time: 14184.87232707 Element set: 898 Inclination: 098.2642 deg RA of node: 142.3521 deg Eccentricity: 0.0013141 Arg of perigee: 118.8018 deg Mean anomaly: 241.4544 deg Mean motion: 14.72567394 rev/day Decay rate: 1.497e-05 rev/day^2 Epoch rev: 11425 Checksum: 300
Satellite: RS-40 Catalog number: 38735 Epoch time: 14184.63015267 Element set: 611 Inclination: 082.4772 deg RA of node: 277.2873 deg Eccentricity: 0.0016570 Arg of perigee: 215.3778 deg Mean anomaly: 144.6196 deg Mean motion: 12.42560323 rev/day Decay rate: 2.4e-07 rev/day^2 Epoch rev: 8762 Checksum: 303
Satellite: PROITERES Catalog number: 38756 Epoch time: 14185.15093153 Element set: 981 Inclination: 098.2289 deg RA of node: 273.7227 deg Eccentricity: 0.0011533 Arg of perigee: 334.3161 deg Mean anomaly: 025.7474 deg Mean motion: 14.74989090 rev/day Decay rate: 4.30e-06 rev/day^2 Epoch rev: 9767 Checksum: 320
Satellite: BEESAT-3 Catalog number: 39134 Epoch time: 14185.19144354 Element set: 630 Inclination: 064.8699 deg RA of node: 084.7235 deg Eccentricity: 0.0028844 Arg of perigee: 304.8805 deg Mean anomaly: 054.9599 deg Mean motion: 15.05414502 rev/day Decay rate: 4.228e-05 rev/day^2 Epoch rev: 6622 Checksum: 316
Satellite: BEESAT-2 Catalog number: 39136 Epoch time: 14184.86363664 Element set: 613 Inclination: 064.8704 deg RA of node: 086.2886 deg Eccentricity: 0.0029290 Arg of perigee: 305.6542 deg Mean anomaly: 054.1879 deg Mean motion: 15.04782389 rev/day Decay rate: 3.350e-05 rev/day^2 Epoch rev: 6616 Checksum: 328
Satellite: LO-75 Catalog number: 39382 Epoch time: 14184.87420428 Element set: 294 Inclination: 040.4962 deg RA of node: 353.9657 deg Eccentricity: 0.0021110 Arg of perigee: 359.4667 deg Mean anomaly: 000.6057 deg Mean motion: 15.46252206 rev/day Decay rate: 6.3875e-04 rev/day^2 Epoch rev: 3464 Checksum: 318
Satellite: ZACUBE-1 Catalog number: 39417 Epoch time: 14185.09504268 Element set: 340 Inclination: 097.7713 deg RA of node: 255.1348 deg Eccentricity: 0.0062034 Arg of perigee: 187.3574 deg Mean anomaly: 172.6748 deg Mean motion: 14.78134759 rev/day Decay rate: 1.058e-05 rev/day^2 Epoch rev: 3319 Checksum: 320
Satellite: TRITON-1 Catalog number: 39427 Epoch time: 14184.77933713 Element set: 194 Inclination: 097.7629 deg RA of node: 250.3144 deg Eccentricity: 0.0117563 Arg of perigee: 197.2681 deg Mean anomaly: 162.4517 deg Mean motion: 14.65412445 rev/day Decay rate: 7.26e-06 rev/day^2 Epoch rev: 3282 Checksum: 316
Satellite: DELFIN3XT Catalog number: 39428 Epoch time: 14184.72611061 Element set: 195 Inclination: 097.7593 deg RA of node: 249.4518 deg Eccentricity: 0.0128266 Arg of perigee: 199.2126 deg Mean anomaly: 160.4240 deg Mean motion: 14.63327555 rev/day Decay rate: 1.171e-05 rev/day^2 Epoch rev: 3275 Checksum: 307
Satellite: GOMX-1 Catalog number: 39430 Epoch time: 14185.13448208 Element set: 609 Inclination: 097.7543 deg RA of node: 247.6645 deg Eccentricity: 0.0156267 Arg of perigee: 203.9765 deg Mean anomaly: 155.4185 deg Mean motion: 14.56849014 rev/day Decay rate: 7.60e-06 rev/day^2 Epoch rev: 3268 Checksum: 325
Satellite: MO-76 Catalog number: 39436 Epoch time: 14184.14842265 Element set: 256 Inclination: 097.7780 deg RA of node: 257.5171 deg Eccentricity: 0.0026513 Arg of perigee: 190.4069 deg Mean anomaly: 169.7081 deg Mean motion: 14.90317755 rev/day Decay rate: 5.798e-05 rev/day^2 Epoch rev: 3325 Checksum: 338
Satellite: LO-74 Catalog number: 39440 Epoch time: 14184.23057462 Element set: 191 Inclination: 097.7711 deg RA of node: 252.5157 deg Eccentricity: 0.0083889 Arg of perigee: 192.7078 deg Mean anomaly: 167.2083 deg Mean motion: 14.73076378 rev/day Decay rate: 7.96e-06 rev/day^2 Epoch rev: 3294 Checksum: 341
Satellite: PUCPSAT-1 Catalog number: 39442 Epoch time: 14184.66362293 Element set: 189 Inclination: 097.7794 deg RA of node: 257.4818 deg Eccentricity: 0.0034454 Arg of perigee: 188.8377 deg Mean anomaly: 171.2293 deg Mean motion: 14.86125801 rev/day Decay rate: 1.421e-05 rev/day^2 Epoch rev: 3207 Checksum: 326
Satellite: LO-78 Catalog number: 39569 Epoch time: 14184.99207878 Element set: 384 Inclination: 051.6402 deg RA of node: 000.3340 deg Eccentricity: 0.0003541 Arg of perigee: 264.3340 deg Mean anomaly: 234.3043 deg Mean motion: 15.88172167 rev/day Decay rate: 3.38126e-03 rev/day^2 Epoch rev: 1969 Checksum: 313
Satellite: SHINAISAT Catalog number: 39572 Epoch time: 14184.57709596 Element set: 170 Inclination: 064.9985 deg RA of node: 346.0052 deg Eccentricity: 0.0017888 Arg of perigee: 283.3130 deg Mean anomaly: 076.6028 deg Mean motion: 15.70559178 rev/day Decay rate: 4.4398e-04 rev/day^2 Epoch rev: 1968 Checksum: 349
Satellite: OPUSAT Catalog number: 39575 Epoch time: 14184.91521163 Element set: 222 Inclination: 064.9963 deg RA of node: 337.6694 deg Eccentricity: 0.0016260 Arg of perigee: 285.2211 deg Mean anomaly: 074.7311 deg Mean motion: 15.96829293 rev/day Decay rate: 3.35009e-03 rev/day^2 Epoch rev: 1987 Checksum: 320
Satellite: TEIKYOSAT Catalog number: 39576 Epoch time: 14184.57000678 Element set: 173 Inclination: 064.9993 deg RA of node: 344.4687 deg Eccentricity: 0.0017408 Arg of perigee: 296.6376 deg Mean anomaly: 063.2994 deg Mean motion: 15.74563986 rev/day Decay rate: 6.0459e-04 rev/day^2 Epoch rev: 1971 Checksum: 363
Satellite: CO-77 Catalog number: 39577 Epoch time: 14185.04849940 Element set: 186 Inclination: 064.9986 deg RA of node: 339.9020 deg Eccentricity: 0.0016651 Arg of perigee: 291.5587 deg Mean anomaly: 068.3822 deg Mean motion: 15.84138961 rev/day Decay rate: 1.35152e-03 rev/day^2 Epoch rev: 1984 Checksum: 362
Satellite: STARS-II Catalog number: 39579 Epoch time: 14116.06110564 Element set: 132 Inclination: 064.9886 deg RA of node: 219.0071 deg Eccentricity: 0.0013010 Arg of perigee: 293.8065 deg Mean anomaly: 069.6132 deg Mean motion: 16.44611049 rev/day Decay rate: 2.0186783e-01 rev/day^2 Epoch rev: 902 Checksum: 288
Satellite: SPROUT Catalog number: 39770 Epoch time: 14184.80393415 Element set: 53 Inclination: 097.8722 deg RA of node: 281.7025 deg Eccentricity: 0.0008516 Arg of perigee: 257.1902 deg Mean anomaly: 102.8341 deg Mean motion: 14.82619872 rev/day Decay rate: 6.17e-06 rev/day^2 Epoch rev: 600 Checksum: 287
Satellite: POPSAT-HIP1 Catalog number: 40028 Epoch time: 14185.19672734 Element set: 33 Inclination: 097.9863 deg RA of node: 079.8587 deg Eccentricity: 0.0013122 Arg of perigee: 237.8430 deg Mean anomaly: 122.1532 deg Mean motion: 14.85051013 rev/day Decay rate: 9.81e-06 rev/day^2 Epoch rev: 210 Checksum: 276
Satellite: EO-80 Catalog number: 40032 Epoch time: 14185.19894536 Element set: 33 Inclination: 097.9829 deg RA of node: 079.8490 deg Eccentricity: 0.0011018 Arg of perigee: 234.5460 deg Mean anomaly: 125.4752 deg Mean motion: 14.84822148 rev/day Decay rate: 9.27e-06 rev/day^2 Epoch rev: 211 Checksum: 303
Satellite: VELOX-1 Catalog number: 40057 Epoch time: 14185.16050782 Element set: 18 Inclination: 098.2513 deg RA of node: 252.3735 deg Eccentricity: 0.0010184 Arg of perigee: 266.8183 deg Mean anomaly: 093.1889 deg Mean motion: 14.73917009 rev/day Decay rate: -5.3e-07 rev/day^2 Epoch rev: 58 Checksum: 289
/EX
participants (1)
-
Ray Hoad